カタログに戻る

ARIANE 44LP DEB

運用中HEO
NORAD 27049·DEBRIS·🇫🇷 France

打ち上げ Aug 8, 1989 から Guiana Space Centre

Loading…

次のパス (今後24時間)

TLE

最新Source: Space-Track

元期: Sep 14, 2026, 01:53 UTC

1 27049U 89062M   26257.07889027  .00001577  00000-0  16483-2 0  9994
2 27049   8.2353  91.2282 6679612 355.5009   0.6963  3.00416543139286

AllMySatでARIANE 44LP DEBをリアルタイム追跡

Download on the App Store